Regional Weather Roundup
Issued by NWS Charleston, SC

Current Version | Previous Version | Graphics & Text | Print | Product List | Glossary On
Versions: 1 2 3 4 5 6 7 8 9 10 11 12 13 14 15 16 17 18 19 20 21 22 23 24 25 26 27 28 29 30 31 32 33 34 35 36 37 38 39 40 41 42 43 44 45 46 47 48 49 50
000
ASUS42 KCHS 300925
RWRCHS

REGIONAL WEATHER ROUNDUP
NATIONAL WEATHER SERVICE CHARLESTON SC
500 AM EDT TUE SEP 30 2014

NOTE: "FAIR" INDICATES FEW OR NO CLOUDS BELOW 12,000 FEET WITH NO
SIGNIFICANT WEATHER AND/OR OBSTRUCTIONS TO VISIBILITY.

NOT ALL STATIONS ARE QUALITY CONTROLLED BY THE NATIONAL
WEATHER SERVICE. USE DATA WITH CAUTION...ESPECIALLY
DEWPOINT OBSERVATIONS.

SCZ027-030-031-034>040-042>050-301000-
...SOUTH CAROLINA...

CITY           SKY/WX    TMP DP  RH WIND       PRES   REMARKS
N CHARLESTON   CLOUDY    65  62  90 N7        29.87S
WATERFRONT PRK NOT AVBL
FORT JOHNSON   NOT AVBL
MOUNT PLEASANT CLOUDY    64  64 100 N6        29.87S
JOHNS ISLAND   CLOUDY    66  66 100 N8        29.87R
PINOPOLIS        N/A     66  63  88 NE9       29.83S
MONCKS CORNER  CLOUDY    66  64  94 N5        29.88S
SUMMERVILLE    PTSUNNY   63  63 100 N3        29.89S
BEAUFORT MCAS  CLOUDY    66  64  93 N12       29.87S
BEAUFORT ARPT  PTSUNNY   64  64 100 N7        29.86S
HILTON HEAD IS CLOUDY    68  66  94 N8        29.87S
GEORGETOWN     NOT AVBL
WALTERBORO     CLOUDY    64 N/A N/A N3        29.89S
ORANGEBURG     PTCLDY    62  60  93 N3        29.90S
BARNWELL       CLOUDY    64  63  94 NE5       29.91S
AIKEN          FAIR      61  61 100 N3        29.95S
MANNING        FAIR      61 N/A N/A CALM      29.90S
KINGSTREE      NOT AVBL
COLUMBIA       CLEAR     65  62  90 CALM      29.91S
SUMTER         CLEAR     62  57  85 N3        29.90S
FLORENCE       CLEAR     61  59  93 N5        29.90S
MYRTLE BEACH   CLOUDY    64  61  88 N9        29.87F
N MYRTLE BEACH CLOUDY    65  63  93 N6        29.87F FOG

$$

GAZ063-065-086>088-099>101-113>116-118-119-134-136>141-150-301000-
...GEORGIA...

CITY           SKY/WX    TMP DP  RH WIND       PRES   REMARKS
SAVANNAH ARPT  CLOUDY    69  65  86 N6        29.86S
HUNTER AAF     CLOUDY    67  66  97 N6        29.84S
FORT STEWART   CLOUDY    68  64  88 N7        29.84F
STATESBORO     NOT AVBL
SYLVANIA       CLOUDY    69  68  98 NE5       29.89S
CLAXTON          N/A     68  68 100 CALM      29.88S
THOMSON        CLOUDY    68  68 100 N3        29.96S
AUGUSTA-BUSH   CLOUDY    67  63  87 CALM      29.91R
AUGUSTA-DANIEL CLOUDY    68  63  84 NE6       29.92S
SWAINSBORO     CLOUDY    68  68 100 NE5       29.90F
VIDALIA        CLOUDY    66  66 100 N6        29.89S FOG
ALMA           CLOUDY    67  66  97 NE8       29.87R
WAYCROSS       CLOUDY    71  70  99 NE6       29.86R FOG
JESUP          CLOUDY    70  70 100 NE6       29.86S
BRUNSWICK      CLOUDY    72  68  88 N6        29.85R
SAINT SIMONS   CLOUDY    71  70  96 N8        29.83R

$$

SCZ027-028-034-036>038-045-046-048>050-GAZ119-141-301000-
...LAKE AND SUPPLEMENTAL COASTAL OBSERVATIONS...

STATION/POSITION TIME  TEMP    WIND        PRES    WAVE   SWELL
                       AIR SEA DIR/SP/G            HT/PER HT/PER/DIR
                 (UTC) (F)     (DEG/KT/KT) (MB)    (FT/S) (FT/S/D)
UPR LAKE MARION  NOT AVBL
WINYAH BAY       0900   65     350/  5     1011.0S
LAKE MURRAY      0800   64     360/  1/  3 1012.5F
ACE BASIN NERRS  0900   65      20/  2     1011.0S
FORT PULASKI     0900   69     360/  9/ 13 1011.0R
SAPELO ISLAND    NOT AVBL

$$

ANZ835-935-AMZ111-154-330-350-352-354-374-450-454-472-301000-
...C-MAN AND BUOY OBSERVATIONS...

STATION/POSITION TIME  TEMP    WIND        PRES    WAVE   SWELL
                       AIR SEA DIR/SP/G            HT/PER HT/PER/DIR
                 (UTC) (F)     (DEG/KT/KT) (MB)    (FT/S) (FT/S/D)
FOLLY BEACH CMAN 0900   66     360/  8/ 11 1011.5F
BUOY 41004       0900   76 81   30/ 19/ 21 1009.0F   5/ 6   2/15
BUOY 41008       0900   75 79   30/ 17/ 21 1009.2S   6/ 6
5E ST. MARYS GA  0900      79                N/A     3/ 6
FRYING PAN BUOY  NOT AVBL
BUOY 41025       0900   69     330/ 19/ 23 1011.2R   4/ 4   2/ 70/ 8
CAPE LOOKOUT NC  0900   69      20/ 11/ 14 1011.5F
BUOY 41002       0823   79 81  190/  8/ 10 1010.3F   3/ 8   2/ 80/ 8
BUOY 41010       0900   80 85  230/ 14/ 17 1008.8S   3/ 6   2/100/ 9
BUOY 41012       NOT AVBL
ST AUGUSTINE FL  0900   73     260/  2/  3 1009.7R
CAPERS NEARSHORE 0800   67      30/ 16/ 17   N/A
FRIPP NEARSHORE  NOT AVBL


$$



USA.gov is the U.S. government's official web portal to all federal, state and local government web resources and services.